NIMBUS 2 DEB, 28610

Orbit data source: Space-Track

NIMBUS 2 DEB, 28610 is space debris in SSO originally from a launch on Sun, 15 May 1966 UTC launched from the Air Force Western Test Range (AFWTR). Debris objects in space refer to the collection of defunct objects orbiting the Earth. Examples of debris include non-operational satellites, rocket bodies, and fragments generated from explosions, collisions, or faulty payload assembly.

Loading next visibility...
Identifier
28610, 1966-040Z
Orbit
SSO
Country
Flag of USUS
Related business
Manufacturer
Unknown
Mission
Spacecraft
Bus & Motor
Unknown
Mass
Unknown
Launch date (UTC)
1966-05-15 (60 years ago)
Launch vehicle
Unknown
Launch site
Air Force Western Test Range (AFWTR)
Object type
Payload
Rocket body
Debris
Shape & HBR
Unknown shape, 0.1 m
Radar Cross Section
Small (<0.1 m²)

Expand to show TLE details & history
Last TLE update: 1 month ago

TLE from 1 month ago
0 NIMBUS 2 DEB
1 28610U 66040Z   25313.48701639  .00002780  00000-0  36703-2 0  9993
2 28610 100.5033  25.7384 0074735 315.4763  56.7031 13.60887691596882
Epoch: 2025-11-09T11:41Z
TLE epoch observation values (Epoch: 2025-11-09T11:41:18.216Z)
Latitude
12.64276°
Longitude
159.13986°
Altitude
1,004.369 km
Speed
7.365 km/s
True Right ascension
01h 33m 28s
True Declination
12° 34' 19"
Sunlit
Object was in full shadow at epoch
Visualization orbit readout
Latitude
Unknown
Longitude
Unknown
Altitude
Unknown
Speed
Unknown
Apparent Right ascension
Unknown
Apparent Declination
Unknown
Sunlit
N/A
Visualization observer readout
Local Sidereal Time
10:00:37
Azimuth
Unknown
Elevation
Unknown
Doppler factor
Unknown
Orbital elements
Apogee altitude
1,085.161 km
Perigee altitude
974.434 km
Semi-major axis
7,407.935 km
Eccentricity
0.00747
Inclination
100.5033°
RAAN
25.7384°
Arg. of periapsis
315.4763°
True anomaly
57.42258°
Mean anomaly
56.7031°
Eccentric anomaly
57.06247°
Mean motion
3.40406 °/min
Orbital period
105.76 mins
BSTAR
0.0036703
Loading maneuver chart data...
Computing Atmospheric mass density...
Loading historical data...
Loading historical data...
Loading historical data...
Loading historical data...
Loading historical data...
Loading historical data...
Loading historical data...

Documentation

Showing up to 5 results
|